Location: *
(51.1248°S, 108.4023°W)
Time: 05:43:41
(UTC+00:00)

Envisat - Pass Details

Date: 25 September 2021
Orbit: 764 x 766 km, 98.2° (Epoch: 17 October)

Event Time Altitude Azimuth Distance (km) Brightness Sun altitude
Rises 11:04:20 0° 23° (NNE) 3,233 6.2 -17.6°
Reaches altitude 10° 11:06:38 10° 25° (NNE) 2,315 5.5 -17.2°
Maximum altitude 11:11:43 72° 108° (ESE) 819 3.3 -16.5°
Drops below altitude 10° 11:16:52 10° 191° (S) 2,345 5.7 -15.8°
Sets 11:19:13 0° 192° (SSW) 3,279 6.4 -15.4°
